Hourly Weather Roundup
Issued by NWS Central Illinois

Home | Current Version | Previous Version | Text Only | Print | Product List | Glossary On
Versions: 1 2 3 4 5 6 7 8 9 10 11 12 13 14 15 16 17 18 19 20 21 22 23 24 25 26 27 28 29 30 31 32 33 34 35 36 37 38 39 40 41 42 43 44 45 46 47 48 49 50
000
NZUS43 KILX 200010
HWRILX

AREA WEATHER ROUNDUP
NATIONAL WEATHER SERVICE, LINCOLN IL
600 PM CST SUN FEB 19 2017


CITY           SKY/WX    TMP DP  RH WIND       PRES   REMARKS
BLOOMINGTON    PTCLDY    59  41  51 SE8       30.05S
6HR MIN TEMP:  57; 6HR MAX TEMP:  67;

CHAMPAIGN      CLEAR     55  44  66 S9        30.07R
6HR MIN TEMP:  55; 6HR MAX TEMP:  68;

DECATUR        PTCLDY    59  48  67 S9        30.05S
6HR MIN TEMP:  55; 6HR MAX TEMP:  68;

EFFINGHAM      CLEAR     54  52  92 SE9       30.09S FOG
6HR MIN TEMP:  54; 6HR MAX TEMP:  62;

FLORA          CLOUDY    55  52  89 SE7       30.10S FOG
6HR MIN TEMP:  55; 6HR MAX TEMP:  60;

GALESBURG      PTCLDY    62  46  55 E3        29.99S
6HR MIN TEMP:  62; 6HR MAX TEMP:  70;

JACKSONVILLE   CLEAR     62  48  60 SE8       30.01S
6HR MIN TEMP:  62; 6HR MAX TEMP:  72;

LACON          CLOUDY    61  42  49 SE6       30.01S
6HR MIN TEMP:  61; 6HR MAX TEMP:  69;

LAWRENCEVILLE  CLEAR     49  45  86 SW6       30.11F FOG
6HR MIN TEMP:  49; 6HR MAX TEMP:  58;

LITCHFIELD     CLEAR     57  51  79 SE7       30.04S
6HR MIN TEMP:  56; 6HR MAX TEMP:  63;

$$


CITY           SKY/WX    TMP DP  RH WIND       PRES   REMARKS
LINCOLN        PTCLDY    59  47  64 S5        30.03R
6HR MIN TEMP:  55; 6HR MAX TEMP:  69;

MACOMB         PTCLDY    64  45  51 SE8       30.01R
6HR MIN TEMP:  64; 6HR MAX TEMP:  72;

MATTOON        CLEAR     55  50  83 S8        30.06F
6HR MIN TEMP:  55; 6HR MAX TEMP:  61;

MT CARMEL AP   CLEAR     51  49  92 SW3       30.11S FOG
6HR MIN TEMP:  50; 6HR MAX TEMP:  56;

OLNEY-NOBLE AP CLOUDY    52  52 100 SE6       30.10F FOG
PARIS          CLEAR     53  47  81 S7        30.09S
6HR MIN TEMP:  53; 6HR MAX TEMP:  65;

PEORIA         CLOUDY    63  45  51 SE7       30.01F
6HR MIN TEMP:  58; 6HR MAX TEMP:  69;

PONTIAC        PTCLDY    55  42  62 SE7       30.05S
6HR MIN TEMP:  55; 6HR MAX TEMP:  69;

RANTOUL        CLEAR     61  46  58 SE6       30.06S
6HR MIN TEMP:  55; 6HR MAX TEMP:  69;

SPRINGFIELD    MOCLDY    63  49  60 S12       30.03R
6HR MIN TEMP:  59; 6HR MAX TEMP:  71;

TAYLORVILLE    CLEAR     59  49  69 SE8       30.05R
6HR MIN TEMP:  55; 6HR MAX TEMP:  66;

$$

...REGIONAL REPORTS...


CITY           SKY/WX    TMP DP  RH WIND       PRES   REMARKS
CHICAGO O`HARE PTCLDY    56  31  38 E7        30.06R
KANKAKEE       CLEAR     54  43  65 CALM      30.08R
MOLINE         MOCLDY    63  42  46 SE10      29.97S
MOUNT STERLING PTCLDY    64  49  56 SE8       29.99R
MOUNT VERNON   CLEAR     54  51  90 E6        30.08S
PITTSFIELD     PTCLDY    64  50  59 SE9       30.01R
QUINCY         PTCLDY    64  48  56 SE8       29.98R
ROCKFORD       CLOUDY    56  39  53 SE6       30.05S
$$


CITY           SKY/WX    TMP DP  RH WIND       PRES   REMARKS
BURLINGTON     PTCLDY    65  48  54 SE8       29.97R
CEDAR RAPIDS   PTCLDY    62  45  53 SE10      29.93R
DES MOINES     CLOUDY    67  47  48 S12       29.88R
KIRKSVILLE     PTCLDY    63  47  55 SE8       29.94S
OTTUMWA        CLOUDY    65  47  52 SE10      29.93R
ST LOUIS       PTCLDY    66  51  58 SE12      30.01F
$$


CITY           SKY/WX    TMP DP  RH WIND       PRES   REMARKS
TERRE HAUTE    CLEAR     54  46  74 S7        30.09F
EVANSVILLE     CLEAR     53  48  83 CALM      30.12S
INDIANAPOLIS   PTCLDY    56  45  66 S6        30.10R
LAFAYETTE      CLEAR     55  43  63 CALM      30.08S
MADISON        MOCLDY    54  35  48 SE5       30.02S
MILWAUKEE      CLOUDY    43  31  62 SE5       30.07S
$$






USA.gov is the U.S. government's official web portal to all federal, state and local government web resources and services.